OBJECT E, 65999

Orbit data source: Space-Track

You're viewing an Uncataloged Satellite

Recently launched and/or uncataloged satellites may have evolving metadata. Metadata may include but not limited to: Owner, Maufacturer, Bus, Motor, and Mission.

OBJECT E, 65999 is a satellite owned by Zhongguo Xingwang (CN) in LEO that was launched on Thu, 16 Oct 2025 UTC via a CHANG ZHENG 8A launch vehicle from the Wenchang Satellite Launch Center (WSC). Unknown objects in Earth's orbit typically refer to objects detected orbiting the Earth but have not yet been identified or cataloged. These objects could be anything from previously untracked satellites, spent rocket stages, debris from satellite collisions, or even natural meteoroids temporarily captured by Earth's gravity.

Loading next visibility...
Identifier
65999, 2025-231E
Orbit
LEO
Country
Flag of CNCN / PRC
Related business
Manufacturer
CAST
Mission
Operational spacecraft
Bus & Motor
GUOWANG C, Unknown motor
Mass
~800 kg wet, ~800 kg dry
Launch date (UTC)
2025-10-16 (4 days ago)
Launch vehicle
CHANG ZHENG 8A
Launch site
Wenchang Satellite Launch Center (WSC)
Object type
Unknown
Shape & HBR
Unknown
Radar Cross Section
RCS unknown

Expand to show TLE details & history
Last TLE update: 7 hours ago

TLE from 7 hours ago
0 OBJECT E
1 65999U 25231E   25292.94853836 -.00000103  00000-0  30089-4 0  9996
2 65999  50.0028 341.9805 0008136 286.3675  73.6336 14.05671540   551
Epoch: 2025-10-19T22:45Z
TLE epoch observation values (Epoch: 2025-10-19T22:45:53.714Z)
Latitude
0.00003°
Longitude
-28.15116°
Altitude
873.089 km
Speed
7.418 km/s
True Right ascension
22h 47m 55s
True Declination
0° 00' 00"
Sunlit
Object was in full shadow at epoch
Visualization orbit readout
Latitude
Unknown
Longitude
Unknown
Altitude
Unknown
Speed
Unknown
Apparent Right ascension
Unknown
Apparent Declination
Unknown
Sunlit
N/A
Visualization observer readout
Local Sidereal Time
00:30:24
Azimuth
Unknown
Elevation
Unknown
Doppler factor
Unknown
Orbital elements
Apogee altitude
880.854 km
Perigee altitude
869.052 km
Semi-major axis
7,253.09 km
Eccentricity
0.00081
Inclination
50.0028°
RAAN
341.9805°
Arg. of periapsis
286.3675°
True anomaly
73.72308°
Mean anomaly
73.6336°
Eccentric anomaly
73.67834°
Mean motion
3.51365 °/min
Orbital period
102.46 mins
BSTAR
0.000030089
Loading maneuver chart data...
Computing Atmospheric mass density...
Loading historical data...
Loading historical data...
Loading historical data...
Loading historical data...
Loading historical data...
Loading historical data...
Loading historical data...

Documentation

Showing up to 5 results
|